Weather in Sinegorye

Russia / Kirov Oblast     59°42′56″N   50°41′42″E
temp.,
°C
wind,
m/s
gust,
m/s
humid.,
%
clouds,
%
prec.,
mm/h
press.,
hPa
HPBL,
m
7 march, sun
sun700:00−20wsw229994 0.0 100920
03:00−22sw2210062 0.0 100920
06:00−22ssw2210088 0.0 100820
09:00−17ssw249690 0.1 1008225
12:00−12s249099 0.0 1006531
15:00−11s358899 0.1 1004722
18:00−15se2396100 0.1 100365
21:00−16se379899 0.1 1003162
8 march, mon
mon800:00−16ese3897100 0.0 1000215
03:00−16ese3896100 0.1 998295
06:00−15e4895100 0.8 996407
09:00−13e4793100 1.2 995483
12:00−11e3692100 0.3 995592
15:00−10ene3693100 0.8 996593
18:00−12ne3795100 0.5 997351
21:00−13nne3696100 0.8 998253
9 march, tue
tue900:00−14nne3795100 0.1 999304
03:00−16n389599 0.3 1001316
06:00−18n389694 0.1 1003372
09:00−17n479397 0.2 1005428
12:00−16n3691100 0.1 1007505
15:00−16n4692100 0.1 1009524
18:00−19n3795100 0.1 1011464
21:00−22n4895100 0.1 1014405
10 march, wed
wed1000:00−28n379766 0.0 1014137
03:00−31n249833 0.0 101679
06:00−32nnw23980 0.0 101767
09:00−25nw24940 0.0 1017247
12:00−18wnw358619 0.0 1015461
15:00−17wnw479154 0.1 1014696
18:00−20w31096100 0.1 1013361
21:00−19w41195100 0.1 1013377
11 march, thu
thu1100:00−17wnw41195100 0.2 1011528
03:00−16wnw41193100 0.3 1010526
06:00−14wnw41193100 0.1 1011575
09:00−11wnw51090100 0.3 1011629
12:00−10wnw61184100 0.0 1012782
15:00−10wnw51087100 0.1 1012873
18:00−12wnw41292100 0.1 1014562
21:00−13w41293100 0.1 1015495